CZ-6A DEB

基本信息
目录编号:
60648
目录名称:
CZ-6A DEB
国际标识:
2024-140AZ
轨道中心:
EARTH
物体状态:
在轨
发射日期:
2024-08-06 UTC
轨道信息
数据来源: 国际轨道数据
星历时间: 2026-09-10T20:37:01+0800
半长轴: 7065.852km
偏心率: 0.0125871
轨道倾角: 89.076°
近地点辐角: 294.506°
升交点赤经: 266.854°
平近点角: 64.307°
近地点: 598.776km
远地点: 776.654km
周期: 98.516分钟
每日圈数: 14.616924
详细信息
发射场:
TSC
轨道高度:
LEO
数据来源:
AOE Integration Group
参考系:
TEME
时间系统:
UTC
历元类型:
SGP4
2D轨道图
3D轨道图
轨道高度分析图
轨道倾角分析图
轨道综合分析图
查看轨道综合分析图